Tracking 19242 objects as of 20-Sep-2018
HD Live streaming from Space Station
objects crossing your sky now

FENGYUN 1C DEB

Track FENGYUN 1C DEB now!
10-day predictions


NORAD ID: 31756
Int'l Code: 1999-025CFF
Perigee: 780.2 km
Apogee: 867.7 km
Inclination: 99.3 °
Period: 101.2 minutes
Semi major axis: 7194 km
RCS: 0.0132 m2 (small)
Launch date: May 10, 1999
Source: People's Republic of China (PRC)
Launch site: Taiyaun Space Center, China (TSC)

Note: This is SATELLITE DEBRIS
aabbcc
Your satellite tracking list
Your tracking list is empty




NASA's NSSDC Master Catalog

Two Line Element Set (TLE):
1 31756U 99025CFF 18262.53617832 +.00000839 +00000-0 +39053-3 0  9994
2 31756 099.3440 168.3095 0060774 159.6388 200.7230 14.22529765587770
Source of the keplerian elements: AFSPC